Location: Unspecified
(0.0000°N, 0.0000°E)
Time: 16:50:29
(UTC+00:00)

Tiros 1 - Pass Details

Date: 23 November 2019
Orbit: 630 x 664 km, 48.4° (Epoch: 12 December)

Event Time Altitude Azimuth Distance (km) Brightness Sun altitude
Rises 22:16:21 0° 295° (WNW) 2,947 - -60.0°
Reaches altitude 10° 22:19:09 10° 279° (W) 2,046 - -60.4°
Maximum altitude 22:22:42 21° 230° (SW) 1,460 - -61.1°
Drops below altitude 10° 22:26:17 10° 181° (S) 2,066 - -61.7°
Sets 22:29:08 0° 165° (SSE) 2,984 - -62.2°
